Simultaneous Nadir Overpasses (SNOs) Predictions

Prediction of SNOs between METOP-B and NOAA-19 Satellite Orbit:

Table of predicted SNOs for the next 14.0 days since TLE Epoch: 6/27/2014
Index Date (METOP-B) Time (METOP-B) Lat,Lon (METOP-B) SZA (METOP-B ) Date (NOAA-19) Time (NOAA-19) Lat,Lon (NOAA-19) SZA (NOAA-19 ) Distance(km) Time Diff (sec)
1 07/04/2014 07:42:47 -74.62,-119.30 128.27 07/04/2014 07:41:39 -74.65,-122.13 128.14 83.25 68
2 07/04/2014 08:33:38 74.09, 46.67 51.24 07/04/2014 08:32:29 74.07, 46.68 51.23 2.93 69
3 07/04/2014 09:24:20 -74.06,-146.08 128.79 07/04/2014 09:23:30 -74.05,-146.03 128.79 2.13 50
4 07/04/2014 10:15:01 74.02, 21.15 51.18 07/04/2014 10:14:32 74.04, 21.23 51.20 3.27 29
5 07/04/2014 11:05:42 -74.04,-171.48 128.80 07/04/2014 11:05:33 -74.02,-171.47 128.82 2.13 9
6 07/04/2014 11:56:23 74.00, -4.25 51.17 07/04/2014 11:56:35 74.01, -4.21 51.18 1.90 12
7 07/04/2014 12:47:04 -74.02, 163.13 128.81 07/04/2014 12:47:36 -73.99, 163.09 128.84 3.04 32
8 07/04/2014 13:37:45 73.98, -29.64 51.15 07/04/2014 13:38:38 73.99, -29.65 51.16 1.09 53
9 07/04/2014 14:28:27 -73.95, 137.61 128.87 07/04/2014 14:29:39 -73.96, 137.64 128.87 2.32 72




NCC Satellite Simultaneous Nadir Overpasses (SNOs) Prediction Service
